[[{"header":{"parameterUnit":"m.s-1","parameterCategory":2,"la1":30.2991,"la2":30.254,"lo1":-89.0895,"lo2":-89.0444,"dy":0.0017,"dx":0.0017,"nx":28,"ny":28,"refTime":"2024-02-22T03:00:00:Z","depth":"0","parameterNumber":2,"parameterNumberName":"U-component_of_CURRENTS"},"data":[0,0,0,0,0,0,0,0,0,0,0,0,0,0,0,0,0,0,0,0,0,0,0,0,0,0,0,0,0,0,0,0,0,0,0,0,0,0,0,0,0,0,0,0,0,0,0,0,0,0,0,0,0,0,0,0,0,0,0.3543,0.3543,0,0.3554,0.3554,0.3554,0.3535,0.3534,0.3534,0.3533,0.3525,0.3525,0.3525,0,0,0,0,0,0,0,0,0,0,0,0,0,0.3526,0.3526,0.3542,0.3543,0.3543,0.3554,0.3554,0.3554,0.3535,0.3534,0.3534,0.3533,0.3524,0.3525,0.3525,0,0,0,0,0,0,0,0,0,0,0,0,0,0.3533,0.3526,0.3542,0.3537,0.3537,0.3554,0.3554,0.3554,0.3535,0.3534,0.3534,0.3533,0.3524,0.3525,0.3525,0.3539,0,0,0.3526,0.3526,0,0,0,0,0,0,0,0,0.3532,0.3533,0.3537,0.3537,0.3537,0.3545,0.3545,0.3549,0.3535,0.3533,0.3533,0.3533,0.3531,0.3531,0.3531,0.3539,0.3538,0.3526,0.3526,0.3526,0.3526,0,0,0,0,0,0,0,0.3532,0.3532,0.3545,0.3538,0.3538,0.3542,0.3541,0.3546,0.3533,0.3533,0.3532,0.3538,0.3531,0.3531,0.3531,0.3538,0.3526,0.3526,0.3526,0.3526,0.3605,0.3607,0,0,0,0,0,0,0.3535,0.3532,0.3544,0.3545,0.3536,0.3543,0.3542,0.3541,0.3534,0.3533,0.3538,0.3537,0.3531,0.3531,0.3531,0.3582,0.3526,0.3526,0.3526,0.3603,0.3606,0.3608,0,0,0,0,0,0,0.3535,0.3536,0.3544,0.3541,0.3543,0.3544,0.3542,0.3541,0.3548,0.3538,0.3536,0.3547,0.3531,0.353,0.3551,0.358,0.3526,0.3526,0.3601,0.3604,0.3607,0.3663,0,0,0,0,0,0,0.3534,0.3535,0.3539,0.3541,0.3543,0.3564,0.3543,0.3542,0.3553,0.3552,0.3545,0.3543,0.353,0.3551,0.3552,0.3579,0.3527,0.3599,0.3602,0.3606,0.3658,0.3667,0.3675,0,0,0,0,0,0.3533,0.3541,0.3538,0.354,0.3546,0.3565,0.3567,0.3563,0.3554,0.3565,0.3565,0.3544,0.3575,0.3553,0.3553,0.3581,0.3597,0.3601,0.3606,0.3655,0.3665,0.3674,0,0,0,0,0,0,0.3533,0.354,0.3537,0.3545,0.3559,0.3563,0.3574,0.3572,0.358,0.3579,0.3564,0.3563,0.3595,0.3585,0.3561,0.3618,0.3585,0.3589,0.3622,0.3632,0.364,0.3668,0.3527,0,0,0,0,0,0.3537,0.3545,0.3553,0.3562,0.3571,0.3575,0.3583,0.3582,0.359,0.3592,0.3587,0.3593,0.3614,0.3619,0.3629,0.3656,0.3679,0.3678,0.3686,0.3693,0.3718,0.3793,0.3811,0.3622,0.3622,0.3622,0,0,0.3539,0.3546,0.3549,0.3564,0.3573,0.3595,0.3577,0.3596,0.3622,0.3591,0.3621,0.362,0.3629,0.3662,0.3675,0.3656,0.3755,0.3698,0.3704,0.3726,0.38,0.3818,0.3835,0.3625,0.3625,0.3624,0,0,0.3553,0.3556,0.3569,0.3587,0.3608,0.3615,0.3625,0.3635,0.3648,0.3671,0.3669,0.3697,0.3699,0.3729,0.3741,0.3805,0.3797,0.3797,0.3858,0.393,0.3947,0.3961,0.3996,0.4014,0.3799,0.3799,0.3799,0,0.3559,0.3571,0.3579,0.3603,0.3622,0.3628,0.3654,0.3677,0.3693,0.3719,0.3687,0.3743,0.3741,0.3818,0.3836,0.3825,0.385,0.3814,0.3942,0.3957,0.3971,0.4003,0.4022,0.3802,0.3802,0.3802,0.3801,0,0.3582,0.3599,0.3614,0.3645,0.367,0.3693,0.3726,0.3754,0.3759,0.378,0.3841,0.3846,0.3886,0.3887,0.3876,0.3981,0.3959,0.3943,0.3915,0.3993,0.4022,0.404,0.3807,0.3806,0.3805,0.3804,0,0,0.3574,0.3619,0.3625,0.3641,0.3692,0.3709,0.3775,0.3831,0.3884,0.3897,0.3972,0.4002,0.4009,0.4027,0.4027,0.4083,0.4188,0.4056,0.4058,0.4088,0.4329,0.4263,0.4276,0.4192,0.4196,0.4199,0.4301,0,0.3589,0.3625,0.3656,0.3701,0.372,0.3767,0.3829,0.3888,0.3934,0.401,0.405,0.4113,0.4065,0.4092,0.4145,0.4195,0.4242,0.416,0.4252,0.4254,0.4186,0.4298,0.4117,0.419,0.4319,0.4322,0.4324,0,0.3597,0.362,0.3658,0.3722,0.3739,0.3777,0.3875,0.3933,0.4058,0.4104,0.4182,0.4218,0.4325,0.4261,0.4386,0.4336,0.4342,0.4358,0.4362,0.4301,0.4225,0.4138,0.4218,0.4114,0.4352,0.435,0.4348,0,0.3559,0.3621,0.3645,0.3666,0.3745,0.3785,0.3836,0.3953,0.4037,0.4179,0.4264,0.4363,0.4439,0.4485,0.4511,0.4466,0.4634,0.4574,0.4515,0.4508,0.4376,0.4351,0.4367,0.4661,0.4661,0.466,0.466,0,0.3546,0.3564,0.3626,0.3637,0.3692,0.3759,0.3852,0.393,0.4088,0.4201,0.4309,0.4418,0.4503,0.4597,0.4586,0.4623,0.4697,0.4564,0.4554,0.4386,0.4362,0.428,0.4228,0.4664,0.4663,0.4663,0.4662,0,0.3487,0.3527,0.356,0.364,0.3669,0.3706,0.3854,0.3936,0.4091,0.4254,0.4316,0.4508,0.4624,0.4685,0.4775,0.4724,0.4627,0.4733,0.4513,0.4476,0.4295,0.4253,0.4144,0.4027,0.4698,0.4697,0.4696,0,0.3451,0.3461,0.3543,0.3574,0.3607,0.3684,0.3753,0.3911,0.4015,0.4288,0.4366,0.4557,0.4646,0.4774,0.474,0.4742,0.4598,0.456,0.4443,0.4301,0.4247,0.4087,0.3985,0.4278,0.4274,0.4271,0.4269,0,0.3394,0.343,0.3464,0.3537,0.3597,0.3664,0.3771,0.386,0.4059,0.4186,0.4362,0.4463,0.4617,0.4554,0.4585,0.4553,0.4347,0.4492,0.4416,0.3998,0.3756,0.3632,0.4177,0.424,0.4243,0.4245,0.4246,0.4248,0.3361,0.338,0.3452,0.3503,0.3569,0.3631,0.3627,0.3751,0.3865,0.3987,0.4199,0.4241,0.4333,0.4355,0.4313,0.4155,0.4149,0.4009,0.3993,0.3863,0.3675,0.415,0.4157,0.4159,0.4161,0.4163,0.4164,0,0.3327,0.3367,0.3418,0.3473,0.3482,0.3546,0.3622,0.3572,0.3585,0.3747,0.3817,0.3876,0.3835,0.3883,0.3834,0.3691,0.3507,0.3581,0.3317,0.326,0.3754,0.3661,0.3473,0.3473,0.3473,0.3473,0.3474,0.3474,0.3323,0.3351,0.3371,0.3366,0.338,0.3303,0.3284,0.3219,0.3258,0.3231,0.3234,0.3339,0.3552,0.358,0.345,0.3357,0.3109,0.2946,0.2968,0.3325,0.3363,0.3399,0.3301,0.304,0.304,0.232,0.2315,0.2311]},{"header":{"parameterUnit":"m.s-1","parameterCategory":2,"la1":30.2991,"la2":30.254,"lo1":-89.0895,"lo2":-89.0444,"dy":0.0017,"dx":0.0017,"nx":28,"ny":28,"refTime":"2024-02-22T03:00:00:Z","depth":"0","parameterNumber":3,"parameterNumberName":"V-component_of_CURRENTS"},"data":[0,0,0,0,0,0,0,0,0,0,0,0,0,0,0,0,0,0,0,0,0,0,0,0,0,0,0,0,0,0,0,0,0,0,0,0,0,0,0,0,0,0,0,0,0,0,0,0,0,0,0,0,0,0,0,0,0,0,0.0156,0.0155,0,0.0098,0.0097,0.0096,0.0048,0.0048,0.0048,0.0048,-0.0035,-0.0037,-0.0039,0,0,0,0,0,0,0,0,0,0,0,0,0,0.0154,0.0155,0.0156,0.0155,0.0155,0.0098,0.0097,0.0096,0.0048,0.0048,0.0048,0.0048,-0.0034,-0.0037,-0.0039,0,0,0,0,0,0,0,0,0,0,0,0,0,0.0129,0.0155,0.0156,0.0127,0.0124,0.0098,0.0097,0.0096,0.0049,0.0048,0.0048,0.0048,-0.0033,-0.0036,-0.0039,-0.0051,0,0,-0.0048,-0.005,0,0,0,0,0,0,0,0,0.013,0.0128,0.0131,0.0129,0.0125,0.0083,0.0066,0.0046,0.0049,0.0074,0.0048,0.0047,0.0005,-0.0002,-0.0016,-0.0055,-0.0059,-0.0049,-0.0051,-0.0052,-0.0053,0,0,0,0,0,0,0,0.0132,0.013,0.013,0.0131,0.0127,0.0093,0.0089,0.0062,0.0039,0.0071,0.0069,0.0067,0.0002,-0.0013,-0.0018,-0.006,-0.0049,-0.0051,-0.0053,-0.0054,-0.011,-0.011,0,0,0,0,0,0,0.015,0.0133,0.0132,0.0128,0.0131,0.0093,0.0089,0.0094,0.0039,0.0032,0.0068,0.0066,-0.0008,-0.0015,-0.0021,-0.0018,-0.0052,-0.0055,-0.0056,-0.0111,-0.011,-0.011,0,0,0,0,0,0,0.015,0.0151,0.0134,0.0131,0.0127,0.0095,0.01,0.0093,0.0084,0.0038,0.0029,0.0066,-0.0008,-0.0017,-0.0037,-0.0022,-0.0056,-0.0059,-0.0111,-0.0111,-0.011,-0.0025,0,0,0,0,0,0,0.0151,0.0151,0.0158,0.0133,0.0128,0.013,0.0101,0.0093,0.0085,0.0081,0.0033,0.0025,-0.0009,-0.0032,-0.004,-0.0027,-0.0061,-0.0111,-0.0111,-0.011,-0.0028,-0.0022,-0.0016,0,0,0,0,0,0.0151,0.017,0.0159,0.0158,0.0139,0.0131,0.0125,0.0098,0.0085,0.0087,0.0054,0.0027,-0.0035,-0.0034,-0.0044,-0.0031,-0.0112,-0.0111,-0.011,-0.0031,-0.0023,-0.0016,0,0,0,0,0,0,0.017,0.0166,0.0153,0.0169,0.0155,0.0125,0.0124,0.0107,0.0081,0.0078,0.0032,0.0021,0.0007,-0.0024,-0.0023,-0.0047,-0.0078,-0.0079,-0.0015,-0.0008,-0.0002,0.0028,-0.0064,0,0,0,0,0,0.0179,0.0193,0.0176,0.0187,0.0184,0.0155,0.0147,0.0132,0.0109,0.0097,0.0064,0.0028,0.0001,-0.0011,-0.0044,-0.0053,-0.0077,-0.0052,-0.0046,-0.0041,-0.0024,-0.0042,-0.0036,-0.0108,-0.0108,-0.0108,0,0,0.0189,0.0189,0.0195,0.0192,0.0177,0.0186,0.0149,0.0148,0.0156,0.0093,0.0089,0.0048,0.0002,-0.001,-0.0019,-0.0032,-0.0036,-0.004,-0.0035,-0.002,-0.0041,-0.0034,-0.0027,-0.0107,-0.0107,-0.0107,0,0,0.0221,0.0216,0.0238,0.0234,0.0226,0.0212,0.0218,0.0194,0.0183,0.0172,0.013,0.0103,0.0058,0.0033,0.0014,0.0035,-0.0006,0.002,0.0079,0.0061,0.0067,0.0072,0.0043,0.0045,0.0026,0.0026,0.0026,0,0.0231,0.0261,0.0241,0.026,0.0269,0.0231,0.0258,0.0241,0.0214,0.0216,0.0182,0.0126,0.0081,0.0079,0.008,0.0051,0.0031,0.0058,0.0071,0.0076,0.008,0.0048,0.0049,0.003,0.003,0.003,0.0029,0,0.0279,0.0302,0.0315,0.0332,0.0335,0.0353,0.0335,0.0334,0.0312,0.0294,0.028,0.0215,0.0187,0.0162,0.0125,0.0135,0.0107,0.008,0.0059,0.0093,0.0056,0.0056,0.0036,0.0035,0.0034,0.0033,0,0,0.0312,0.0345,0.0352,0.038,0.038,0.0395,0.0409,0.0419,0.0447,0.0392,0.0423,0.0348,0.0312,0.0288,0.0236,0.0215,0.0209,0.0167,0.0164,0.015,0.0166,0.0148,0.0145,0.0189,0.019,0.0191,0.0127,0,0.0359,0.0424,0.0423,0.0485,0.0519,0.05,0.0525,0.0525,0.0511,0.0528,0.046,0.046,0.0362,0.036,0.0317,0.025,0.0214,0.0229,0.0126,0.0123,0.0113,0.0146,0.0166,0.0112,0.0126,0.0126,0.0126,0,0.0411,0.0453,0.0527,0.0584,0.0597,0.0627,0.0675,0.0693,0.0693,0.0684,0.0656,0.0607,0.0568,0.0483,0.0368,0.0384,0.0282,0.0213,0.0209,0.0167,0.0105,0.008,0.011,-0.0069,0.0125,0.0125,0.0125,0,0.0463,0.0528,0.0599,0.0617,0.0667,0.0703,0.073,0.0745,0.0792,0.0798,0.0838,0.075,0.0743,0.0606,0.0439,0.0414,0.0315,0.0258,0.0137,0.0134,0.0119,0.0114,-0.0023,0.0174,0.0174,0.0174,0.0174,0,0.0524,0.0578,0.0636,0.0676,0.0773,0.0777,0.0875,0.0886,0.0935,0.1028,0.0932,0.0986,0.0778,0.0689,0.0504,0.033,0.0355,0.0162,0.0126,0.0146,0.0144,-0.0039,-0.0135,0.0172,0.0172,0.0173,0.0173,0,0.0574,0.0605,0.0694,0.0769,0.0803,0.0876,0.0985,0.1057,0.1088,0.1212,0.1232,0.1178,0.1066,0.0837,0.0627,0.044,0.0162,0.0182,0.0213,0.0182,-0.0099,-0.0189,-0.036,-0.0424,0.0049,0.0048,0.0047,0,0.0606,0.0659,0.0771,0.084,0.0883,0.099,0.1073,0.113,0.1229,0.1345,0.1427,0.1358,0.1341,0.101,0.0662,0.034,0.015,0.0138,0.0085,-0.0096,-0.0225,-0.0304,-0.035,0.0087,0.0087,0.0086,0.0086,0,0.0673,0.0713,0.079,0.0935,0.1039,0.1167,0.1298,0.1403,0.1505,0.1619,0.1749,0.1749,0.1441,0.1127,0.0673,0.0443,0.003,0.0124,-0.0066,-0.0198,-0.0289,-0.0373,0.0094,0.0085,0.0085,0.0085,0.0085,0.0085,0.0726,0.0796,0.0904,0.1045,0.1168,0.1342,0.1464,0.1621,0.1807,0.1992,0.1976,0.2014,0.1555,0.0946,0.061,0.0012,0.0003,-0.0176,-0.027,-0.0333,-0.0395,0.0068,0.0019,0.0019,0.0019,0.0019,0.0019,0,0.0798,0.0882,0.101,0.1181,0.1329,0.1387,0.1615,0.1752,0.1986,0.2142,0.2239,0.2052,0.1493,0.0916,0.0103,-0.0312,-0.0451,-0.0537,-0.065,-0.0678,-0.0267,-0.0265,-0.0373,-0.0373,-0.0373,-0.0373,-0.0373,-0.0372,0.084,0.0969,0.1037,0.1288,0.1416,0.1629,0.1766,0.1969,0.2127,0.2319,0.2354,0.2337,0.1908,0.0471,-0.0497,-0.0713,-0.0966,-0.1039,-0.117,-0.0908,-0.0882,-0.0857,-0.0879,-0.1114,-0.1115,-0.1525,-0.1529,-0.1533]}],[{"header":{"parameterUnit":"m.s-1","parameterCategory":2,"la1":30.2991,"la2":30.254,"lo1":-89.0895,"lo2":-89.0444,"dy":0.0017,"dx":0.0017,"nx":28,"ny":28,"refTime":"2024-02-22T03:00:00:Z","depth":"2","parameterNumber":2,"parameterNumberName":"U-component_of_CURRENTS"},"data":[0,0,0,0,0,0,0,0,0,0,0,0,0,0,0,0,0,0,0,0,0,0,0,0,0,0,0,0,0,0,0,0,0,0,0,0,0,0,0,0,0,0,0,0,0,0,0,0,0,0,0,0,0,0,0,0,0,0,0.2922,0.2922,0,0.2946,0.2946,0.2946,0.2945,0.2945,0.2945,0.2945,0.295,0.295,0.2951,0,0,0,0,0,0,0,0,0,0,0,0,0,0.289,0.289,0.2922,0.2922,0.2923,0.2946,0.2946,0.2946,0.2945,0.2945,0.2945,0.2945,0.295,0.295,0.2951,0,0,0,0,0,0,0,0,0,0,0,0,0,0.2905,0.289,0.2922,0.2927,0.2928,0.2946,0.2946,0.2946,0.2945,0.2945,0.2945,0.2945,0.295,0.295,0.2951,0.2956,0,0,0.2952,0.2952,0,0,0,0,0,0,0,0,0.2904,0.2906,0.2926,0.2927,0.2928,0.2944,0.2937,0.2949,0.2945,0.2936,0.2945,0.2945,0.2948,0.2949,0.295,0.2956,0.2956,0.2952,0.2952,0.2952,0.2952,0,0,0,0,0,0,0,0.2903,0.2905,0.2929,0.2926,0.2928,0.2933,0.2935,0.2939,0.294,0.2937,0.2937,0.2944,0.2948,0.295,0.295,0.2956,0.2952,0.2952,0.2952,0.2953,0.3029,0.3031,0,0,0,0,0,0,0.2905,0.2904,0.2928,0.293,0.2918,0.2934,0.2936,0.2937,0.2941,0.2942,0.2944,0.2944,0.2949,0.295,0.2951,0.3007,0.2952,0.2953,0.2953,0.3028,0.303,0.3032,0,0,0,0,0,0,0.2904,0.2906,0.2927,0.292,0.2923,0.2935,0.2936,0.2938,0.2954,0.2947,0.2947,0.2961,0.2949,0.295,0.2975,0.3005,0.2953,0.2953,0.3026,0.3028,0.3031,0.3087,0,0,0,0,0,0,0.2903,0.2906,0.2913,0.292,0.2924,0.295,0.2937,0.2938,0.2959,0.2959,0.2962,0.2961,0.2949,0.2974,0.2975,0.3004,0.2953,0.3023,0.3027,0.303,0.3082,0.3091,0.3098,0,0,0,0,0,0.2901,0.2911,0.2913,0.2916,0.2931,0.2951,0.2954,0.296,0.296,0.2973,0.2979,0.2962,0.2997,0.2976,0.2976,0.3006,0.3022,0.3026,0.303,0.3079,0.3089,0.3098,0,0,0,0,0,0,0.29,0.2913,0.2914,0.2927,0.2944,0.2952,0.2968,0.2972,0.2987,0.299,0.298,0.2981,0.3016,0.3007,0.2984,0.3041,0.3009,0.3013,0.3046,0.3055,0.3063,0.3088,0.2954,0,0,0,0,0,0.2904,0.2915,0.2929,0.2941,0.2952,0.2964,0.2975,0.2981,0.2993,0.3,0.3002,0.3012,0.3031,0.3039,0.3049,0.3076,0.3095,0.3099,0.3107,0.3114,0.3136,0.3201,0.3217,0.3045,0.3045,0.3045,0,0,0.2907,0.2917,0.2923,0.2943,0.2956,0.2979,0.297,0.2995,0.3022,0.2998,0.3035,0.3039,0.3046,0.3079,0.3094,0.3076,0.317,0.3119,0.3124,0.3144,0.3207,0.3224,0.3239,0.3048,0.3048,0.3047,0,0,0.2919,0.293,0.2944,0.2964,0.2991,0.3001,0.3014,0.3032,0.3051,0.3079,0.3081,0.3111,0.3119,0.3145,0.3156,0.3217,0.321,0.3213,0.3271,0.3333,0.3348,0.3361,0.3392,0.3408,0.3215,0.3215,0.3216,0,0.2925,0.294,0.2953,0.2978,0.2998,0.3015,0.304,0.3067,0.3092,0.3119,0.3098,0.3155,0.3158,0.3224,0.3246,0.3236,0.3258,0.3229,0.3344,0.3358,0.337,0.3399,0.3415,0.3219,0.3218,0.3218,0.3218,0,0.2945,0.2965,0.2981,0.3014,0.3041,0.3066,0.3104,0.3137,0.3153,0.3176,0.3239,0.3248,0.3287,0.3291,0.3285,0.3381,0.3363,0.3346,0.3318,0.3391,0.3416,0.3432,0.3223,0.3222,0.3221,0.322,0,0,0.2934,0.2982,0.2989,0.3008,0.3062,0.3079,0.3145,0.3201,0.3251,0.3278,0.3347,0.3384,0.3398,0.3415,0.3419,0.347,0.357,0.3451,0.3453,0.3479,0.3694,0.3622,0.3632,0.3573,0.3576,0.3579,0.367,0,0.2945,0.2982,0.3013,0.3058,0.3079,0.3129,0.3187,0.3247,0.3295,0.3368,0.3413,0.3474,0.3445,0.3473,0.3525,0.3572,0.3618,0.3546,0.3623,0.3625,0.3551,0.3651,0.3348,0.3399,0.3686,0.3688,0.369,0,0.295,0.2974,0.3013,0.3074,0.3092,0.3131,0.3224,0.328,0.3398,0.3443,0.3521,0.3558,0.3663,0.3616,0.3737,0.3693,0.3707,0.3722,0.3726,0.3656,0.3585,0.3377,0.3417,0.3717,0.3715,0.3713,0.3711,0,0.2913,0.2974,0.3,0.3022,0.3098,0.3141,0.3193,0.3302,0.3372,0.3509,0.3577,0.368,0.3753,0.3805,0.3846,0.3807,0.3961,0.3906,0.3847,0.3841,0.3598,0.3565,0.3989,0.3989,0.3989,0.3989,0.3988,0,0.2898,0.2919,0.2986,0.2999,0.3053,0.3121,0.3204,0.3281,0.3416,0.3507,0.3618,0.3705,0.381,0.39,0.3905,0.3942,0.4014,0.3891,0.3879,0.3606,0.3574,0.3859,0.3843,0.3992,0.3991,0.3991,0.399,0,0.2844,0.2887,0.2922,0.3003,0.3033,0.3074,0.3203,0.3262,0.3407,0.3537,0.3594,0.3771,0.3889,0.3964,0.4063,0.402,0.4054,0.4036,0.37,0.3648,0.3869,0.3855,0.399,0.3989,0.3988,0.3987,0.3986,0,0.2813,0.2826,0.291,0.2932,0.297,0.3044,0.3095,0.3241,0.3315,0.3554,0.361,0.3796,0.3883,0.4017,0.399,0.4006,0.4059,0.3713,0.3587,0.3905,0.388,0.3867,0.3854,0.3275,0.3269,0.3263,0.3259,0,0.276,0.2798,0.2827,0.2879,0.2928,0.298,0.307,0.3127,0.3303,0.3415,0.3565,0.3667,0.3819,0.3713,0.3762,0.3717,0.369,0.3605,0.4052,0.3328,0.324,0.3212,0.3221,0.3211,0.3216,0.322,0.3222,0.3224,0.2723,0.2733,0.2782,0.2816,0.2865,0.2897,0.2892,0.2993,0.3083,0.3203,0.3388,0.3428,0.3486,0.3412,0.3313,0.3235,0.3478,0.3296,0.3308,0.3328,0.3235,0.315,0.3086,0.309,0.3093,0.3096,0.3099,0,0.267,0.2688,0.2713,0.2738,0.2726,0.2802,0.2848,0.2808,0.2828,0.2976,0.3062,0.2867,0.2827,0.288,0.2694,0.2696,0.263,0.2577,0.245,0.2503,0.2548,0.241,0.2045,0.2041,0.2038,0.2034,0,0,0.2645,0.2635,0.2637,0.2587,0.26,0.2534,0.2522,0.249,0.2532,0.251,0.2508,0.273,0.2827,0.2405,0.235,0.2161,0.2309,0.208,0.2935,0.2842,0.2882,0.2986,0.2838,0,0,0,0,0]},{"header":{"parameterUnit":"m.s-1","parameterCategory":2,"la1":30.2991,"la2":30.254,"lo1":-89.0895,"lo2":-89.0444,"dy":0.0017,"dx":0.0017,"nx":28,"ny":28,"refTime":"2024-02-22T03:00:00:Z","depth":"2","parameterNumber":3,"parameterNumberName":"V-component_of_CURRENTS"},"data":[0,0,0,0,0,0,0,0,0,0,0,0,0,0,0,0,0,0,0,0,0,0,0,0,0,0,0,0,0,0,0,0,0,0,0,0,0,0,0,0,0,0,0,0,0,0,0,0,0,0,0,0,0,0,0,0,0,0,0.0189,0.0189,0,0.0135,0.0135,0.0134,0.0091,0.0091,0.0091,0.0091,0.0019,0.0017,0.0015,0,0,0,0,0,0,0,0,0,0,0,0,0,0.019,0.019,0.0189,0.0189,0.0188,0.0136,0.0135,0.0134,0.0091,0.0091,0.0091,0.009,0.0019,0.0017,0.0015,0,0,0,0,0,0,0,0,0,0,0,0,0,0.0166,0.0191,0.0189,0.0163,0.016,0.0136,0.0135,0.0133,0.0091,0.0091,0.0091,0.009,0.002,0.0017,0.0015,0.0004,0,0,0.0007,0.0006,0,0,0,0,0,0,0,0,0.0168,0.0166,0.0167,0.0165,0.0161,0.0122,0.0109,0.009,0.0091,0.0115,0.0091,0.009,0.0053,0.0048,0.0035,0.0001,-0.0002,0.0006,0.0005,0.0004,0.0003,0,0,0,0,0,0,0,0.0169,0.0167,0.0165,0.0167,0.0163,0.0131,0.0128,0.0104,0.0084,0.0112,0.011,0.0108,0.0051,0.0038,0.0033,-0.0003,0.0007,0.0004,0.0003,0.0002,-0.0045,-0.0045,0,0,0,0,0,0,0.0185,0.017,0.0167,0.0164,0.0167,0.0132,0.0128,0.0133,0.0084,0.0078,0.0108,0.0106,0.0042,0.0036,0.003,0.0034,0.0004,0.0001,-0.0,-0.0045,-0.0045,-0.0045,0,0,0,0,0,0,0.0185,0.0186,0.0169,0.0167,0.0163,0.0133,0.0138,0.0132,0.0123,0.0082,0.0074,0.0107,0.0042,0.0034,0.0017,0.003,0.0,-0.0002,-0.0046,-0.0045,-0.0045,0.0029,0,0,0,0,0,0,0.0186,0.0186,0.0192,0.0169,0.0164,0.0165,0.0139,0.0131,0.0123,0.012,0.0078,0.0071,0.0041,0.0021,0.0014,0.0026,-0.0004,-0.0046,-0.0046,-0.0045,0.0026,0.0032,0.0037,0,0,0,0,0,0.0186,0.0203,0.0193,0.0192,0.0174,0.0166,0.016,0.0135,0.0124,0.0125,0.0097,0.0072,0.002,0.0019,0.0011,0.0023,-0.0047,-0.0046,-0.0045,0.0024,0.0031,0.0037,0,0,0,0,0,0,0.0204,0.02,0.0188,0.0201,0.0188,0.016,0.0159,0.0143,0.0121,0.0118,0.0077,0.0068,0.0056,0.0029,0.0029,0.001,-0.0018,-0.0018,0.0038,0.0044,0.0049,0.0075,-0.0006,0,0,0,0,0,0.0212,0.0224,0.0208,0.0218,0.0215,0.0187,0.018,0.0166,0.0145,0.0135,0.0105,0.0075,0.0052,0.0041,0.0013,0.0006,-0.0021,0.0006,0.0012,0.0017,0.0032,0.0003,0.0007,-0.0042,-0.0042,-0.0042,0,0,0.0221,0.022,0.0226,0.0222,0.0208,0.0216,0.0182,0.018,0.0187,0.0131,0.0128,0.0092,0.0053,0.0043,0.0036,0.0024,0.0014,0.0018,0.0022,0.0035,0.0004,0.0009,0.0013,-0.0042,-0.0042,-0.0042,0,0,0.0249,0.0245,0.0264,0.0261,0.0252,0.0239,0.0244,0.0222,0.0212,0.0202,0.0165,0.0143,0.0103,0.0083,0.0066,0.0086,0.0043,0.0072,0.0123,0.0095,0.0099,0.0103,0.0069,0.0069,0.0077,0.0077,0.0077,0,0.0258,0.0285,0.0267,0.0284,0.0292,0.0257,0.0281,0.0266,0.024,0.024,0.0211,0.0161,0.0125,0.0121,0.0125,0.01,0.0073,0.0104,0.0104,0.0107,0.0109,0.0073,0.0072,0.0081,0.008,0.008,0.008,0,0.0301,0.0322,0.0334,0.0349,0.0351,0.0367,0.0351,0.0349,0.0329,0.0311,0.0296,0.0241,0.0215,0.0195,0.0165,0.0167,0.0139,0.0113,0.0092,0.0119,0.0079,0.0076,0.0086,0.0085,0.0084,0.0083,0,0,0.033,0.0361,0.0367,0.0392,0.0392,0.0405,0.0417,0.0425,0.0446,0.0397,0.0416,0.0358,0.0323,0.0303,0.0257,0.0231,0.0215,0.0186,0.0183,0.0162,0.0149,0.0121,0.0115,0.0189,0.0189,0.0189,0.0113,0,0.0372,0.043,0.0431,0.0486,0.0517,0.0499,0.0521,0.0519,0.0503,0.051,0.0449,0.0444,0.0366,0.0361,0.0319,0.025,0.0213,0.0238,0.0119,0.0116,0.0095,0.0113,0.0135,0.0069,0.011,0.011,0.011,0,0.0419,0.0456,0.0523,0.0574,0.0586,0.0613,0.0652,0.0667,0.0658,0.0645,0.0614,0.0565,0.0523,0.0454,0.0335,0.0354,0.0261,0.0194,0.0189,0.0139,0.0084,0.0049,0.0062,0.0105,0.0105,0.0106,0.0106,0,0.0464,0.0523,0.0587,0.0603,0.0648,0.068,0.0704,0.0712,0.075,0.0741,0.0765,0.0679,0.0663,0.0532,0.0375,0.0361,0.024,0.0201,0.0082,0.0078,0.0063,0.0058,0.0116,0.0116,0.0116,0.0117,0.0117,0,0.0518,0.0567,0.062,0.0655,0.0743,0.0746,0.0832,0.0838,0.0872,0.0941,0.0847,0.0874,0.0684,0.0585,0.042,0.0245,0.0266,0.01,0.0062,0.0088,0.0086,0.0091,0.0089,0.0114,0.0114,0.0115,0.0116,0,0.0562,0.059,0.067,0.0738,0.077,0.0835,0.0933,0.0992,0.1008,0.1098,0.1107,0.1032,0.0906,0.0694,0.049,0.0323,0.0148,0.0075,0.0113,0.0082,-0.0009,-0.0007,-0.0054,-0.0056,-0.0057,-0.0058,-0.0059,0,0.059,0.0637,0.074,0.0803,0.0843,0.0941,0.1015,0.106,0.114,0.1202,0.126,0.1166,0.1118,0.0789,0.048,0.0184,0.0143,0.0005,-0.0019,0.0008,-0.0024,-0.0019,-0.0015,-0.0018,-0.0018,-0.0018,-0.0019,0,0.0648,0.0685,0.0756,0.0889,0.0983,0.1101,0.1215,0.1299,0.1371,0.144,0.1508,0.1474,0.117,0.0869,0.0454,0.0253,0.0052,-0.0012,0.0015,0.0025,0.0037,0.0007,0.0011,-0.0022,-0.0022,-0.0022,-0.0021,-0.0021,0.0696,0.0759,0.0859,0.0988,0.1102,0.1255,0.1358,0.1482,0.1619,0.173,0.1686,0.1633,0.1293,0.0765,0.0402,0.0021,0.0045,-0.0091,-0.0088,-0.0084,-0.0063,-0.0054,-0.0127,-0.0127,-0.0127,-0.0128,-0.0128,0,0.0762,0.0837,0.0953,0.1108,0.1241,0.1298,0.1489,0.159,0.1754,0.1836,0.1875,0.1555,0.1211,0.0814,0.0251,-0.0079,-0.0101,-0.0186,-0.0141,-0.0135,-0.013,-0.0111,-0.0188,-0.0189,-0.019,-0.0191,0,0,0.0799,0.0916,0.0976,0.12,0.1316,0.1499,0.1612,0.1755,0.1852,0.1926,0.1894,0.181,0.1333,0.0915,0.046,0.0133,0.0077,0.0069,0.0155,0.0268,0.0277,-0.0039,0.0003,0,0,0,0,0]}],[{"header":{"parameterUnit":"m.s-1","parameterCategory":2,"la1":30.2991,"la2":30.254,"lo1":-89.0895,"lo2":-89.0444,"dy":0.0017,"dx":0.0017,"nx":28,"ny":28,"refTime":"2024-02-22T03:00:00:Z","depth":"4","parameterNumber":2,"parameterNumberName":"U-component_of_CURRENTS"},"data":[0,0,0,0,0,0,0,0,0,0,0,0,0,0,0,0,0,0,0,0,0,0,0,0,0,0,0,0,0,0,0,0,0,0,0,0,0,0,0,0,0,0,0,0,0,0,0,0,0,0,0,0,0,0,0,0,0,0,0.1882,0.1883,0,0.195,0.195,0.1951,0.201,0.2011,0.2012,0.2013,0.2089,0.209,0.2092,0,0,0,0,0,0,0,0,0,0,0,0,0,0.1801,0.1802,0.1882,0.1883,0.1884,0.1949,0.195,0.1951,0.201,0.2011,0.2012,0.2013,0.2089,0.209,0.2092,0,0,0,0,0,0,0,0,0,0,0,0,0,0.1847,0.1802,0.1881,0.1923,0.1927,0.1949,0.195,0.1951,0.201,0.2011,0.2013,0.2014,0.2088,0.209,0.2092,0.2077,0,0,0.2098,0.2098,0,0,0,0,0,0,0,0,0.1844,0.185,0.1916,0.192,0.1925,0.1975,0.195,0.1994,0.201,0.1977,0.2013,0.2015,0.2052,0.2057,0.2064,0.2081,0.2084,0.2098,0.2099,0.21,0.21,0,0,0,0,0,0,0,0.1841,0.1847,0.1907,0.1917,0.1922,0.1937,0.1945,0.1958,0.2005,0.198,0.1985,0.1995,0.2055,0.2062,0.2066,0.2085,0.2098,0.2099,0.21,0.2101,0.2218,0.2219,0,0,0,0,0,0,0.1836,0.1844,0.1904,0.1909,0.1889,0.1938,0.1946,0.1956,0.2005,0.2014,0.1994,0.1997,0.2058,0.2064,0.2069,0.2164,0.21,0.2101,0.2102,0.2216,0.2218,0.222,0,0,0,0,0,0,0.1833,0.184,0.1902,0.188,0.1889,0.1938,0.1948,0.1956,0.2007,0.2016,0.2025,0.2041,0.2059,0.2066,0.2122,0.2163,0.2102,0.2104,0.2213,0.2216,0.2219,0.2283,0,0,0,0,0,0,0.1831,0.1839,0.1864,0.1879,0.189,0.1941,0.1947,0.1957,0.201,0.2017,0.2058,0.2064,0.2061,0.2119,0.2124,0.2164,0.2105,0.2211,0.2215,0.2218,0.2278,0.2288,0.2296,0,0,0,0,0,0.1828,0.1848,0.1864,0.1873,0.1916,0.1942,0.195,0.1987,0.2011,0.2037,0.2072,0.2065,0.2146,0.2122,0.2127,0.2169,0.2209,0.2214,0.2218,0.2274,0.2286,0.2295,0,0,0,0,0,0,0.1828,0.1857,0.1875,0.1905,0.1936,0.1954,0.1989,0.2011,0.2058,0.2079,0.2087,0.2095,0.2159,0.2157,0.213,0.2215,0.2178,0.2183,0.2219,0.223,0.2239,0.2253,0.2107,0,0,0,0,0,0.1838,0.1866,0.189,0.1921,0.194,0.1973,0.1998,0.2023,0.2056,0.2081,0.2109,0.2142,0.2173,0.2198,0.2219,0.2263,0.2274,0.2295,0.2304,0.2312,0.2328,0.2383,0.2399,0.2235,0.2235,0.2235,0,0,0.1848,0.1869,0.1887,0.1925,0.1955,0.1986,0.1993,0.2042,0.2082,0.2079,0.2156,0.2176,0.2192,0.2244,0.2273,0.2254,0.2363,0.2317,0.2323,0.2336,0.239,0.2406,0.242,0.2238,0.2237,0.2237,0,0,0.1867,0.1903,0.1929,0.1958,0.2009,0.2026,0.2049,0.2092,0.2133,0.2189,0.2206,0.2258,0.2297,0.2324,0.2338,0.241,0.2407,0.2419,0.2477,0.2531,0.2545,0.2557,0.2584,0.2599,0.2424,0.2424,0.2424,0,0.1884,0.1913,0.1942,0.1974,0.2007,0.2048,0.2083,0.2125,0.2184,0.2223,0.2226,0.2317,0.2335,0.2403,0.2434,0.2431,0.2453,0.2432,0.2542,0.2555,0.2566,0.2591,0.2606,0.2428,0.2428,0.2427,0.2427,0,0.1905,0.1948,0.197,0.2022,0.206,0.2101,0.2152,0.2209,0.2258,0.2293,0.2383,0.2411,0.2467,0.2481,0.2482,0.2577,0.2563,0.2545,0.2513,0.2587,0.2608,0.2623,0.2433,0.2432,0.2431,0.243,0,0,0.1892,0.1969,0.1983,0.2016,0.2092,0.2118,0.22,0.2271,0.2332,0.2398,0.2476,0.2541,0.2571,0.2591,0.2606,0.2656,0.2755,0.2647,0.2648,0.267,0.2868,0.2675,0.2672,0.2761,0.2764,0.2766,0.2847,0,0.1905,0.1961,0.2004,0.2072,0.2104,0.2175,0.2242,0.2319,0.2388,0.2473,0.2536,0.2613,0.2608,0.2651,0.2705,0.275,0.2799,0.2734,0.2798,0.2799,0.2616,0.2684,0.2776,0.2858,0.2861,0.2864,0.2865,0,0.1905,0.1945,0.201,0.2095,0.2119,0.2176,0.229,0.2357,0.2484,0.2541,0.2633,0.2683,0.2794,0.2767,0.289,0.2854,0.2877,0.2895,0.2898,0.2707,0.2633,0.2772,0.2891,0.2889,0.2887,0.2886,0.2884,0,0.1856,0.1946,0.1999,0.203,0.2134,0.2197,0.2267,0.2388,0.2459,0.2606,0.267,0.2784,0.2866,0.2924,0.2979,0.2954,0.3089,0.3047,0.289,0.2876,0.2997,0.2983,0.3128,0.3128,0.3128,0.3127,0.3127,0,0.1827,0.1875,0.1991,0.2018,0.2097,0.2186,0.2288,0.2375,0.2509,0.2591,0.2715,0.2785,0.2917,0.3001,0.3022,0.3001,0.3127,0.2914,0.289,0.302,0.3008,0.3006,0.2991,0.313,0.313,0.3129,0.3129,0,0.1759,0.1835,0.1903,0.203,0.2077,0.2141,0.2294,0.2349,0.2501,0.2616,0.2674,0.2834,0.2934,0.3024,0.3125,0.3037,0.3044,0.3002,0.3144,0.3125,0.2783,0.2771,0.2825,0.2819,0.2814,0.2809,0.2806,0,0.1721,0.1753,0.1899,0.1941,0.2008,0.2116,0.2176,0.2333,0.2393,0.2612,0.2647,0.2814,0.2898,0.2886,0.2987,0.3005,0.2968,0.2941,0.2849,0.2783,0.2756,0.2752,0.2746,0.2798,0.2796,0.2795,0.2794,0,0.1648,0.1725,0.1779,0.1868,0.1945,0.201,0.212,0.215,0.2325,0.2489,0.2559,0.2612,0.2714,0.277,0.281,0.2814,0.294,0.2887,0.2896,0.281,0.2751,0.2728,0.2729,0.2776,0.2779,0.278,0.2781,0,0.1602,0.1622,0.1708,0.1768,0.1849,0.1869,0.1946,0.2015,0.2099,0.2337,0.2357,0.253,0.2692,0.2672,0.2709,0.27,0.2647,0.2541,0.2567,0.2588,0.2469,0.2358,0.2254,0,0,0,0,0,0.1543,0.1545,0.1591,0.164,0.1708,0.1762,0.188,0.1959,0.2139,0.2128,0.2237,0.2318,0.2374,0.246,0.2402,0.2593,0.2653,0.2511,0.2542,0.2678,0.2699,0.2579,0,0,0,0,0,0,0.1498,0.1542,0.1546,0.151,0.1522,0.1581,0.1651,0.1777,0.1782,0.1979,0.2025,0.2174,0.2266,0.2393,0.2361,0.2384,0.2352,0.2622,0.2615,0.2667,0.2685,0.2702,0.2586,0,0,0,0,0]},{"header":{"parameterUnit":"m.s-1","parameterCategory":2,"la1":30.2991,"la2":30.254,"lo1":-89.0895,"lo2":-89.0444,"dy":0.0017,"dx":0.0017,"nx":28,"ny":28,"refTime":"2024-02-22T03:00:00:Z","depth":"4","parameterNumber":3,"parameterNumberName":"V-component_of_CURRENTS"},"data":[0,0,0,0,0,0,0,0,0,0,0,0,0,0,0,0,0,0,0,0,0,0,0,0,0,0,0,0,0,0,0,0,0,0,0,0,0,0,0,0,0,0,0,0,0,0,0,0,0,0,0,0,0,0,0,0,0,0,0.0161,0.0161,0,0.0126,0.0125,0.0125,0.0098,0.0098,0.0098,0.0098,0.0049,0.0048,0.0046,0,0,0,0,0,0,0,0,0,0,0,0,0,0.016,0.016,0.0161,0.0161,0.0161,0.0126,0.0125,0.0125,0.0098,0.0098,0.0098,0.0098,0.0049,0.0048,0.0046,0,0,0,0,0,0,0,0,0,0,0,0,0,0.0145,0.016,0.0161,0.0145,0.0143,0.0126,0.0125,0.0124,0.0098,0.0098,0.0098,0.0098,0.005,0.0048,0.0046,0.0037,0,0,0.004,0.004,0,0,0,0,0,0,0,0,0.0146,0.0144,0.0147,0.0146,0.0144,0.0118,0.0107,0.0095,0.0098,0.0113,0.0098,0.0098,0.0072,0.0068,0.0059,0.0035,0.0033,0.004,0.0039,0.0038,0.0038,0,0,0,0,0,0,0,0.0147,0.0146,0.0145,0.0147,0.0145,0.0123,0.0121,0.0104,0.0092,0.0112,0.0111,0.0109,0.007,0.0061,0.0058,0.0032,0.004,0.0039,0.0037,0.0037,0.0005,0.0006,0,0,0,0,0,0,0.0157,0.0147,0.0147,0.0145,0.0146,0.0124,0.0121,0.0125,0.0093,0.0088,0.011,0.0108,0.0065,0.006,0.0056,0.0062,0.0038,0.0037,0.0035,0.0005,0.0005,0.0006,0,0,0,0,0,0,0.0157,0.0158,0.0148,0.0146,0.0143,0.0124,0.0128,0.0124,0.012,0.0091,0.0086,0.0111,0.0064,0.0059,0.0049,0.0059,0.0036,0.0034,0.0005,0.0005,0.0006,0.0062,0,0,0,0,0,0,0.0157,0.0158,0.0163,0.0147,0.0144,0.0146,0.0128,0.0124,0.012,0.0119,0.009,0.0085,0.0064,0.0052,0.0047,0.0056,0.0033,0.0004,0.0005,0.0005,0.006,0.0064,0.0068,0,0,0,0,0,0.0158,0.017,0.0164,0.0164,0.0153,0.0147,0.0143,0.0127,0.0121,0.0123,0.0104,0.0086,0.0051,0.0051,0.0045,0.0054,0.0004,0.0005,0.0005,0.0058,0.0063,0.0068,0,0,0,0,0,0,0.017,0.0168,0.0161,0.0172,0.0163,0.0143,0.0145,0.0134,0.012,0.012,0.0091,0.0084,0.0078,0.0058,0.0058,0.0046,0.0025,0.0024,0.0066,0.0071,0.0075,0.0095,0.0031,0,0,0,0,0,0.0177,0.0187,0.0176,0.0184,0.0182,0.0164,0.016,0.0151,0.0138,0.0131,0.0111,0.0091,0.0075,0.0068,0.0049,0.0044,0.0017,0.0045,0.005,0.0053,0.0065,0.0032,0.0034,0.0008,0.0008,0.0008,0,0,0.0184,0.0184,0.0189,0.0187,0.0179,0.0186,0.0161,0.0162,0.0169,0.0128,0.013,0.0105,0.0077,0.0071,0.0067,0.0057,0.0045,0.0054,0.0058,0.0067,0.0033,0.0035,0.0037,0.0008,0.0008,0.0008,0,0,0.0205,0.0204,0.0219,0.0217,0.0213,0.0205,0.0209,0.0195,0.0189,0.0185,0.0159,0.0144,0.0118,0.0102,0.009,0.0107,0.0068,0.0097,0.0136,0.0104,0.0106,0.0107,0.0071,0.0069,0.01,0.0101,0.0101,0,0.0212,0.0233,0.0221,0.0235,0.0242,0.0219,0.0238,0.0229,0.0212,0.0213,0.0194,0.0159,0.0134,0.0131,0.0137,0.0118,0.009,0.0121,0.011,0.0111,0.0112,0.0074,0.007,0.0103,0.0103,0.0103,0.0103,0,0.0243,0.0261,0.0271,0.0285,0.0289,0.0302,0.0293,0.0293,0.0281,0.0269,0.0258,0.0219,0.0201,0.0187,0.0168,0.0164,0.0139,0.0119,0.01,0.0118,0.0076,0.0072,0.0107,0.0106,0.0106,0.0105,0,0,0.0262,0.0289,0.0295,0.0316,0.0321,0.0332,0.0344,0.035,0.0366,0.0333,0.0344,0.0307,0.0282,0.0267,0.0234,0.0207,0.0183,0.0172,0.0169,0.0141,0.0107,0.0087,0.008,0.0159,0.0159,0.0159,0.0074,0,0.0292,0.0337,0.0341,0.0387,0.0411,0.0403,0.0421,0.0422,0.0411,0.0413,0.0368,0.0364,0.0313,0.031,0.0272,0.0211,0.0176,0.0208,0.0089,0.0086,0.0071,0.0076,0.0158,0.007,0.0069,0.0069,0.0068,0,0.0324,0.0353,0.0407,0.0451,0.0461,0.0487,0.0519,0.0533,0.0524,0.0513,0.0489,0.045,0.0413,0.0366,0.0259,0.0281,0.0203,0.0145,0.014,0.0102,0.0059,0.0049,0.006,0.006,0.0061,0.0062,0.0062,0,0.0351,0.0402,0.0453,0.0468,0.0508,0.0537,0.0561,0.0568,0.0596,0.0585,0.0597,0.0527,0.0507,0.04,0.0272,0.0268,0.0144,0.012,0.0024,0.0021,0.0039,0.0038,0.0042,0.0042,0.0042,0.0043,0.0043,0,0.0384,0.0425,0.0477,0.0505,0.0578,0.0587,0.0657,0.0663,0.0686,0.0729,0.0659,0.0662,0.0516,0.0424,0.0295,0.0145,0.0154,0.0035,0.0001,0.0063,0.0066,0.0035,0.0035,0.0039,0.004,0.0041,0.0041,0,0.0406,0.0436,0.0502,0.0564,0.0596,0.065,0.0736,0.0777,0.079,0.0842,0.0847,0.077,0.0649,0.0483,0.0307,0.0188,0.004,-0.0019,0.006,0.0031,-0.0068,-0.0064,-0.0125,-0.0126,-0.0127,-0.0128,-0.0129,0,0.042,0.0458,0.0553,0.0606,0.0645,0.073,0.079,0.083,0.0882,0.0906,0.0934,0.0838,0.0762,0.0499,0.0312,0.0055,0.0014,-0.0071,-0.0068,-0.0056,-0.0083,-0.0077,-0.0072,-0.0131,-0.0131,-0.0132,-0.0132,0,0.045,0.0487,0.0546,0.0658,0.0739,0.0834,0.0924,0.0967,0.1016,0.1026,0.1009,0.0874,0.0731,0.051,0.0305,0.0119,-0.0019,-0.0084,-0.0083,-0.008,-0.0064,-0.0089,-0.0082,-0.0136,-0.0135,-0.0135,-0.0135,0,0.0477,0.0524,0.0606,0.0708,0.081,0.0911,0.0955,0.1018,0.1066,0.1086,0.1074,0.0916,0.0826,0.0543,0.0355,0.0168,0.0119,0.0051,0.0044,0.0046,0.0113,0.016,0.0134,0,0,0,0,0,0.0502,0.056,0.065,0.0762,0.0862,0.0931,0.1035,0.1069,0.1112,0.1111,0.1099,0.0965,0.0694,0.0574,0.0386,0.0318,0.0074,0.0087,-0.0011,-0.0157,-0.0153,-0.0105,0,0,0,0,0,0,0.0519,0.0604,0.065,0.0788,0.0871,0.0992,0.1061,0.1093,0.1095,0.1104,0.0965,0.0906,0.0641,0.0805,0.0379,0.0323,0.023,-0.0035,-0.004,-0.016,-0.0156,-0.0152,-0.0102,0,0,0,0,0]}]]